Regional Weather Roundup
Issued by NWS

Home | Current Version | Previous Version | Text Only | Print | Product List | Glossary On
Versions: 1 2 3 4 5 6 7 8 9 10 11 12 13 14 15 16 17 18 19 20 21 22 23 24 25 26 27 28 29 30 31 32 33 34 35 36 37 38 39 40 41 42 43 44 45 46 47 48 49 50
000
ASUS43 KTOP 041959
RWRKS

WEATHER ROUNDUP FOR KANSAS
NATIONAL WEATHER SERVICE GOODLAND KS
300 PM CDT WED MAY 04 2016

NOTE:  "FAIR" INDICATES FEW OR NO CLOUDS BELOW 12,000 FEET WITH NO
SIGNIFICANT WEATHER AND/OR OBSTRUCTIONS TO VISIBILITY.

KSZ001>006-013>018-027>032-041>047-042100-
NORTHWEST KANSAS

CITY           SKY/WX    TMP DP  RH WIND       PRES   REMARKS
GOODLAND       SUNNY     75  40  28 N12       30.15F
HAYS           SUNNY     72  41  33 N13G18    30.11S
HILL CITY      SUNNY     76  40  27 NE10      30.12S
RUSSELL        SUNNY     73  41  31 N10       30.08F
$$

KSZ061>065-074>080-084>089-042100-
SOUTHWEST KANSAS

CITY           SKY/WX    TMP DP  RH WIND       PRES   REMARKS
DODGE CITY     SUNNY     74  44  34 N14G21    30.12S
ELKHART          N/A     76  42  29 E6          N/A
GARDEN CITY    SUNNY     76  40  27 N9G18     30.12F
GREAT BEND     SUNNY     72  43  35 N12G21    30.09F
LIBERAL        SUNNY     75  43  31 N9        30.15S
$$

KSZ066>073-081>083-090>101-042100-
SOUTHEAST KANSAS

CITY           SKY/WX    TMP DP  RH WIND       PRES   REMARKS
CHANUTE        SUNNY     73  38  27 NW14G22   30.00S
COFFEYVILLE    SUNNY     74  41  30 N15       29.99S
HUTCHINSON     SUNNY     75  36  24 N16G26    30.06F
MEDICINE LODGE   N/A     76  40  27 N17G23    30.06F
NEWTON         SUNNY     72  36  26 N14G24    30.07F
PARSONS        SUNNY     74  42  31 N15G24    30.00S
WICHITA INTL   SUNNY     75  34  22 N16G26    30.04F
WICHITA JABRA  SUNNY     73  33  23 N20G29    30.04F
WINFIELD       SUNNY     75  39  27 N16G24    30.34R
$$

KSZ007>012-019>026-033>040-048>060-102>105-042100-
NORTHEAST KANSAS

CITY           SKY/WX    TMP DP  RH WIND       PRES   REMARKS
CONCORDIA      SUNNY     71  36  27 N17G24    30.07F
EMPORIA        SUNNY     71  36  27 N10G20    30.02S
LAWRENCE       SUNNY     70  40  33 N17G25    30.00F
MANHATTAN      SUNNY     71  35  26 N15       30.04F
OLATHE IND     SUNNY     69  40  34 NW16G26   30.00S
OLATHE EXE     SUNNY     69  36  29 N10G24    29.99S
SALINA         SUNNY     74  37  26 N12G24    30.06F
TOPEKA BILLARD SUNNY     70  39  32 N17G26    30.01F
TOPEKA FORBES  SUNNY     72  40  31 N16G22    30.01F
$$



USA.gov is the U.S. government's official web portal to all federal, state and local government web resources and services.